Time,TemperatureF,DewpointF,PressureIn,WindDirection,WindDirectionDegrees,WindSpeedMPH,WindSpeedGustMPH,Humidity,HourlyPrecipIn,Conditions,Clouds,dailyrainin,SolarRadiationWatts/m^2,SoftwareType,DateUTC
2013-09-21 00:01:00,84.0,60.0,-100.00,SW,225,6.0,15.0,44,0.00,,,0.00,0.000000,,2013-09-21 07:01:00,
2013-09-21 00:11:00,84.0,60.0,-100.00,SW,225,6.0,15.0,44,0.00,,,0.00,0.000000,,2013-09-21 07:11:00,
2013-09-21 00:21:00,84.0,60.0,-100.00,SW,225,6.0,15.0,44,0.00,,,0.00,0.000000,,2013-09-21 07:21:00,
2013-09-21 00:52:00,84.0,62.0,-100.00,SW,227,3.0,12.0,47,0.00,,,0.00,0.000000,,2013-09-21 07:52:00,
2013-09-21 01:03:00,84.0,62.0,-100.00,SW,227,3.0,12.0,47,0.00,,,0.00,0.000000,,2013-09-21 08:03:00,
2013-09-21 01:13:00,84.0,62.0,-100.00,SW,227,3.0,12.0,47,0.00,,,0.00,0.000000,,2013-09-21 08:13:00,
2013-09-21 01:21:00,84.0,62.0,-100.00,SW,227,3.0,12.0,47,0.00,,,0.00,0.000000,,2013-09-21 08:21:00,
2013-09-21 01:52:00,83.0,59.0,-100.00,SSW,202,0.0,6.0,45,0.00,,,0.00,0.000000,,2013-09-21 08:52:00,
2013-09-21 02:01:00,83.0,59.0,-100.00,SSW,202,0.0,6.0,45,0.00,,,0.00,0.000000,,2013-09-21 09:01:00,
2013-09-21 02:11:00,83.0,59.0,-100.00,SSW,202,0.0,6.0,45,0.00,,,0.00,0.000000,,2013-09-21 09:11:00,
2013-09-21 02:22:00,83.0,59.0,-100.00,SSW,202,0.0,6.0,45,0.00,,,0.00,0.000000,,2013-09-21 09:22:00,
2013-09-21 02:54:00,79.0,60.0,-100.00,ESE,108,0.0,4.0,52,0.00,,,0.00,0.000000,,2013-09-21 09:54:00,
2013-09-21 03:03:00,79.0,60.0,-100.00,ESE,108,0.0,4.0,52,0.00,,,0.00,0.000000,,2013-09-21 10:03:00,
2013-09-21 03:12:00,79.0,60.0,-100.00,ESE,108,0.0,4.0,52,0.00,,,0.00,0.000000,,2013-09-21 10:12:00,
2013-09-21 03:23:00,79.0,60.0,-100.00,ESE,108,0.0,4.0,52,0.00,,,0.00,0.000000,,2013-09-21 10:23:00,
2013-09-21 03:52:00,79.0,58.0,-100.00,NNE,33,0.0,4.0,49,0.00,,,0.00,0.000000,,2013-09-21 10:52:00,
2013-09-21 04:03:00,79.0,58.0,-100.00,NNE,33,0.0,4.0,49,0.00,,,0.00,0.000000,,2013-09-21 11:03:00,
2013-09-21 04:11:00,79.0,58.0,-100.00,NNE,33,0.0,4.0,49,0.00,,,0.00,0.000000,,2013-09-21 11:11:00,
2013-09-21 04:22:00,79.0,58.0,-100.00,NNE,33,0.0,4.0,49,0.00,,,0.00,0.000000,,2013-09-21 11:22:00,
2013-09-21 04:52:00,78.0,61.0,-100.00,ENE,60,0.0,5.0,55,0.00,,,0.00,0.000000,,2013-09-21 11:52:00,
2013-09-21 05:02:00,78.0,61.0,-100.00,ENE,60,0.0,5.0,55,0.00,,,0.00,0.000000,,2013-09-21 12:02:00,
2013-09-21 05:12:00,78.0,61.0,-100.00,ENE,60,0.0,5.0,55,0.00,,,0.00,0.000000,,2013-09-21 12:12:00,
2013-09-21 05:21:00,78.0,61.0,-100.00,ENE,60,0.0,5.0,55,0.00,,,0.00,0.000000,,2013-09-21 12:21:00,
2013-09-21 05:52:00,76.0,62.0,-100.00,NNW,340,0.0,2.0,62,0.00,,,0.00,0.000000,,2013-09-21 12:52:00,
2013-09-21 06:02:00,76.0,62.0,-100.00,NNW,340,0.0,2.0,62,0.00,,,0.00,0.000000,,2013-09-21 13:02:00,
2013-09-21 06:11:00,76.0,62.0,-100.00,NNW,340,0.0,2.0,62,0.00,,,0.00,0.000000,,2013-09-21 13:11:00,
2013-09-21 06:21:00,76.0,62.0,-100.00,NNW,340,0.0,2.0,62,0.00,,,0.00,0.000000,,2013-09-21 13:21:00,
2013-09-21 06:52:00,75.0,58.0,-100.00,SSW,192,0.0,2.0,55,0.00,,,0.00,0.000000,,2013-09-21 13:52:00,
2013-09-21 07:02:00,75.0,58.0,-100.00,SSW,192,0.0,2.0,55,0.00,,,0.00,0.000000,,2013-09-21 14:02:00,
2013-09-21 07:11:00,75.0,58.0,-100.00,SSW,192,0.0,2.0,55,0.00,,,0.00,0.000000,,2013-09-21 14:11:00,
2013-09-21 07:22:00,75.0,58.0,-100.00,SSW,192,0.0,2.0,55,0.00,,,0.00,0.000000,,2013-09-21 14:22:00,
2013-09-21 07:52:00,80.0,58.0,-100.00,SE,144,0.0,0.0,47,0.00,,,0.00,65.000000,,2013-09-21 14:52:00,
2013-09-21 08:01:00,80.0,58.0,-100.00,SE,144,0.0,0.0,47,0.00,,,0.00,65.000000,,2013-09-21 15:01:00,
2013-09-21 08:12:00,80.0,58.0,-100.00,SE,144,0.0,0.0,47,0.00,,,0.00,65.000000,,2013-09-21 15:12:00,
2013-09-21 08:22:00,80.0,58.0,-100.00,SE,144,0.0,0.0,47,0.00,,,0.00,65.000000,,2013-09-21 15:22:00,
2013-09-21 09:24:00,88.0,57.0,-100.00,NE,35,0.0,3.0,35,0.00,,,0.00,246.000000,,2013-09-21 16:24:00,
2013-09-21 09:54:00,90.0,59.0,-100.00,South,181,2.0,6.0,35,0.00,,,0.00,482.000000,,2013-09-21 16:54:00,
2013-09-21 10:03:00,90.0,59.0,-100.00,South,181,2.0,6.0,35,0.00,,,0.00,482.000000,,2013-09-21 17:03:00,
2013-09-21 10:12:00,90.0,59.0,-100.00,South,181,2.0,6.0,35,0.00,,,0.00,482.000000,,2013-09-21 17:12:00,
2013-09-21 10:23:00,90.0,59.0,-100.00,South,181,2.0,6.0,35,0.00,,,0.00,482.000000,,2013-09-21 17:23:00,
2013-09-21 10:52:00,93.0,54.0,-100.00,South,184,3.0,7.0,27,0.00,,,0.00,747.000000,,2013-09-21 17:52:00,
2013-09-21 11:02:00,93.0,54.0,-100.00,South,184,3.0,7.0,27,0.00,,,0.00,747.000000,,2013-09-21 18:02:00,
2013-09-21 11:12:00,93.0,54.0,-100.00,South,184,3.0,7.0,27,0.00,,,0.00,747.000000,,2013-09-21 18:12:00,
2013-09-21 11:21:00,93.0,54.0,-100.00,South,184,3.0,7.0,27,0.00,,,0.00,747.000000,,2013-09-21 18:21:00,
2013-09-21 11:52:00,98.0,57.0,-100.00,East,85,3.0,10.0,26,0.00,,,-99.99,895.000000,,2013-09-21 18:52:00,
2013-09-21 12:02:00,98.0,57.0,-100.00,East,85,3.0,10.0,26,0.00,,,-99.99,895.000000,,2013-09-21 19:02:00,
2013-09-21 12:11:00,98.0,57.0,-100.00,East,85,3.0,10.0,26,0.00,,,-99.99,895.000000,,2013-09-21 19:11:00,
2013-09-21 12:21:00,98.0,57.0,-100.00,East,85,3.0,10.0,26,0.00,,,-99.99,895.000000,,2013-09-21 19:21:00,
2013-09-21 12:52:00,97.0,59.0,-100.00,SW,218,9.0,21.0,29,0.00,,,0.00,1031.000000,,2013-09-21 19:52:00,
2013-09-21 13:02:00,97.0,59.0,-100.00,SW,218,9.0,21.0,29,0.00,,,0.00,1031.000000,,2013-09-21 20:02:00,
2013-09-21 13:12:00,97.0,59.0,-100.00,SW,218,9.0,21.0,29,0.00,,,0.00,1031.000000,,2013-09-21 20:12:00,
2013-09-21 13:21:00,97.0,59.0,-100.00,SW,218,9.0,21.0,29,0.00,,,0.00,1031.000000,,2013-09-21 20:21:00,
2013-09-21 13:52:00,100.0,54.0,-100.00,SSW,212,10.0,21.0,22,0.00,,,0.00,1042.000000,,2013-09-21 20:52:00,
2013-09-21 14:02:00,100.0,54.0,-100.00,SSW,212,10.0,21.0,22,0.00,,,0.00,1042.000000,,2013-09-21 21:02:00,
2013-09-21 14:11:00,100.0,54.0,-100.00,SSW,212,10.0,21.0,22,0.00,,,0.00,1042.000000,,2013-09-21 21:11:00,
2013-09-21 14:21:00,100.0,54.0,-100.00,SSW,212,10.0,21.0,22,0.00,,,0.00,1042.000000,,2013-09-21 21:21:00,
2013-09-21 14:54:00,100.0,50.0,-100.00,SSW,209,11.0,19.0,19,0.00,,,0.00,976.000000,,2013-09-21 21:54:00,
2013-09-21 15:05:00,100.0,50.0,-100.00,SSW,209,11.0,19.0,19,0.00,,,0.00,976.000000,,2013-09-21 22:05:00,
2013-09-21 15:13:00,100.0,50.0,-100.00,SSW,209,11.0,19.0,19,0.00,,,0.00,976.000000,,2013-09-21 22:13:00,
2013-09-21 15:23:00,100.0,50.0,-100.00,SSW,209,11.0,19.0,19,0.00,,,0.00,976.000000,,2013-09-21 22:23:00,
2013-09-21 16:22:00,101.0,45.0,-100.00,SSW,205,10.0,19.0,15,0.00,,,0.00,828.000000,,2013-09-21 23:22:00,
2013-09-21 16:52:00,102.0,49.0,-100.00,SW,222,12.0,20.0,17,0.00,,,0.00,617.000000,,2013-09-21 23:52:00,
2013-09-21 17:02:00,102.0,49.0,-100.00,SW,222,12.0,20.0,17,0.00,,,0.00,617.000000,,2013-09-22 00:02:00,
2013-09-21 17:12:00,102.0,49.0,-100.00,SW,222,12.0,20.0,17,0.00,,,0.00,617.000000,,2013-09-22 00:12:00,
2013-09-21 17:22:00,102.0,49.0,-100.00,SW,222,12.0,20.0,17,0.00,,,0.00,617.000000,,2013-09-22 00:22:00,
2013-09-21 17:52:00,100.0,53.0,-100.00,SW,218,12.0,19.0,21,0.00,,,0.00,372.000000,,2013-09-22 00:52:00,
2013-09-21 18:02:00,100.0,53.0,-100.00,SW,218,12.0,19.0,21,0.00,,,0.00,372.000000,,2013-09-22 01:02:00,
2013-09-21 18:11:00,100.0,53.0,-100.00,SW,218,12.0,19.0,21,0.00,,,0.00,372.000000,,2013-09-22 01:11:00,
2013-09-21 18:21:00,100.0,53.0,-100.00,SW,218,12.0,19.0,21,0.00,,,0.00,372.000000,,2013-09-22 01:21:00,
2013-09-21 18:52:00,97.0,48.0,-100.00,SW,221,13.0,20.0,19,0.00,,,0.00,93.000000,,2013-09-22 01:52:00,
2013-09-21 19:02:00,97.0,48.0,-100.00,SW,221,13.0,20.0,19,0.00,,,0.00,93.000000,,2013-09-22 02:02:00,
2013-09-21 19:11:00,97.0,48.0,-100.00,SW,221,13.0,20.0,19,0.00,,,0.00,93.000000,,2013-09-22 02:11:00,
2013-09-21 19:22:00,97.0,48.0,-100.00,SW,221,13.0,20.0,19,0.00,,,0.00,93.000000,,2013-09-22 02:22:00,
2013-09-21 19:52:00,93.0,38.0,-100.00,SW,221,7.0,15.0,15,0.00,,,0.00,1.000000,,2013-09-22 02:52:00,
2013-09-21 20:02:00,93.0,38.0,-100.00,SW,221,7.0,15.0,15,0.00,,,0.00,1.000000,,2013-09-22 03:02:00,
2013-09-21 20:12:00,93.0,38.0,-100.00,SW,221,7.0,15.0,15,0.00,,,0.00,1.000000,,2013-09-22 03:12:00,
2013-09-21 20:22:00,93.0,38.0,-100.00,SW,221,7.0,15.0,15,0.00,,,0.00,1.000000,,2013-09-22 03:22:00,
2013-09-21 20:54:00,90.0,42.0,-100.00,West,272,10.0,20.0,19,0.00,,,0.00,0.000000,,2013-09-22 03:54:00,
2013-09-21 21:02:00,-999.0,-99.9,-100.00,West,272,10.0,20.0,-999,-99.99,,,-99.99,0.000000,,2013-09-22 04:02:00,
2013-09-21 21:14:00,90.0,42.0,-100.00,West,272,10.0,20.0,19,0.00,,,0.00,0.000000,,2013-09-22 04:14:00,
2013-09-21 21:23:00,90.0,42.0,-100.00,West,272,10.0,20.0,19,0.00,,,0.00,0.000000,,2013-09-22 04:23:00,
2013-09-21 21:54:00,86.0,43.0,-100.00,WNW,284,11.0,19.0,22,0.00,,,0.00,0.000000,,2013-09-22 04:54:00,
2013-09-21 22:03:00,86.0,43.0,-100.00,WNW,284,11.0,19.0,22,0.00,,,0.00,0.000000,,2013-09-22 05:03:00,
2013-09-21 22:13:00,86.0,43.0,-100.00,WNW,284,11.0,19.0,22,0.00,,,0.00,0.000000,,2013-09-22 05:13:00,
2013-09-21 22:22:00,86.0,43.0,-100.00,WNW,284,11.0,19.0,22,0.00,,,0.00,0.000000,,2013-09-22 05:22:00,
2013-09-21 22:53:00,85.0,39.0,-100.00,NNW,334,5.0,23.0,20,0.00,,,0.00,0.000000,,2013-09-22 05:53:00,
2013-09-21 23:02:00,85.0,39.0,-100.00,NNW,334,5.0,23.0,20,0.00,,,0.00,0.000000,,2013-09-22 06:02:00,
2013-09-21 23:12:00,85.0,39.0,-100.00,NNW,334,5.0,23.0,20,0.00,,,0.00,0.000000,,2013-09-22 06:12:00,
2013-09-21 23:21:00,85.0,39.0,-100.00,NNW,334,5.0,23.0,20,0.00,,,0.00,0.000000,,2013-09-22 06:21:00,
2013-09-21 23:52:00,81.0,45.0,-100.00,West,262,1.0,16.0,28,0.00,,,0.00,0.000000,,2013-09-22 06:52:00,